CZ-6A DEB, 55543

Orbit data source: Space-Track

CZ-6A DEB, 55543 is space debris in SSO originally from a launch on Fri, 11 Nov 2022 UTC launched from the Taiyaun Space Center, China (TSC). Debris objects in space refer to the collection of defunct objects orbiting the Earth. Examples of debris include non-operational satellites, rocket bodies, and fragments generated from explosions, collisions, or faulty payload assembly.

Loading next visibility...
Identifier
55543, 2022-151YR
Orbit
SSO
Country
Flag of CNCN / PRC
Related business
Manufacturer
SAST
Mission
Spacecraft
Bus & Motor
Unknown
Mass
Unknown
Launch date (UTC)
2022-11-11 (4 years ago)
Launch vehicle
Unknown
Launch site
Taiyaun Space Center, China (TSC)
Object type
Payload
Rocket body
Debris
Shape & HBR
Unknown shape, 0.1 m
Radar Cross Section
Small (<0.1 m²)

Expand to show TLE details & history
Last TLE update: 15 hours ago

TLE from 15 hours ago
0 CZ-6A DEB
1 55543U 22151YR  26236.06819616  .00004932  00000-0  93914-3 0  9996
2 55543  98.5166 278.1658 0128752  98.3648 263.2171 14.59310418194191
Epoch: 2026-08-24T01:38Z
TLE epoch observation values (Epoch: 2026-08-24T01:38:12.148Z)
Latitude
-0.00001°
Longitude
-78.74002°
Altitude
710.289 km
Speed
7.494 km/s
True Right ascension
18h 32m 39s
True Declination
0° 00' 00"
Sunlit
Object was in full shadow at epoch
Visualization orbit readout
Latitude
Unknown
Longitude
Unknown
Altitude
Unknown
Speed
Unknown
Apparent Right ascension
Unknown
Apparent Declination
Unknown
Sunlit
N/A
Visualization observer readout
Local Sidereal Time
07:25:11
Azimuth
Unknown
Elevation
Unknown
Doppler factor
Unknown
Orbital elements
Apogee altitude
783.534 km
Perigee altitude
601.462 km
Semi-major axis
7,070.635 km
Eccentricity
0.01288
Inclination
98.5166°
RAAN
278.1658°
Arg. of periapsis
98.3648°
True anomaly
261.75498°
Mean anomaly
263.2171°
Eccentric anomaly
262.48574°
Mean motion
3.65053 °/min
Orbital period
98.62 mins
BSTAR
0.00093914
Loading maneuver chart data...
Computing Atmospheric mass density...
Loading historical data...
Loading historical data...
Loading historical data...
Loading historical data...
Loading historical data...
Loading historical data...
Loading historical data...

Documentation

Showing up to 5 results
|